Weather History for KWDG - February, 2014

Change the Weather History Date:

Tuesday, February 25, 2014

  Actual Average Record
Temperature  
Mean Temperature 34 °F -  
Max Temperature 42 °F 50 °F 71 °F (1999)
Min Temperature 26 °F 31 °F 6 °F (2003)
Degree Days  
Heating Degree Days 31    
Moisture  
Dew Point 23 °F    
Average Humidity 72    
Maximum Humidity 93    
Minimum Humidity 42    
Precipitation  
Precipitation 0.00 in - - ()
Sea Level Pressure  
Sea Level Pressure 30.27 in    
Wind  
Wind Speed 14 mph (North)    
Max Wind Speed 25 mph    
Max Gust Speed 32 mph    
Visibility 10 miles    
Events      
Averages and records for this station are not official NWS values.
T = Trace of Precipitation, MM = Missing Value Source: NWS Daily Summary

Daily Weather History Graph

Daily Weather History Graph

Search for Another Location

Airport or City:

Trip Planner

Search our weather history database for the weather conditions in past years. The results will help you decide how hot, cold, wet, or windy it might be!

Date:

Astronomy

Feb. 25, 2014 Rise Set
Actual Time 7:06 AM CST 6:22 PM CST
Civil Twilight 6:40 AM CST 6:48 PM CST
Nautical Twilight 6:10 AM CST 7:17 PM CST
Astronomical Twilight 5:41 AM CST 7:47 PM CST
Moon 3:58 AM CST (2/25) 2:33 PM CST (2/25)
Length of Visible Light 12h 07m
Length of Day
11h 15m
Waning Crescent, 18% of the Moon is Illuminated
Feb 25
Waning Crescent
Mar 1
New
Mar 8
First Quarter
Mar 16
Full
Mar 23
Last Quarter

Hourly Weather History & Observations

Time (CST) Temp. Windchill Dew Point Humidity Pressure Visibility Wind Dir Wind Speed Gust Speed Precip Events Conditions
12:15 AM 32.0 °F 24.8 °F 28.4 °F 87% 30.17 in 10.0 mi NNE 8.1 mph - N/A   Clear
12:35 AM 30.2 °F 21.9 °F 26.6 °F 86% 30.18 in 10.0 mi North 9.2 mph - N/A   Clear
12:55 AM 30.2 °F 23.4 °F 26.6 °F 86% 30.18 in 10.0 mi North 6.9 mph - N/A   Clear
1:15 AM 30.2 °F 23.4 °F 28.4 °F 93% 30.19 in 10.0 mi North 6.9 mph - N/A   Mostly Cloudy
1:30 AM 30.2 °F 21.9 °F 28.4 °F 93% 30.19 in 10.0 mi NNE 9.2 mph - N/A   Mostly Cloudy
1:50 AM 32.0 °F 24.8 °F 28.4 °F 87% 30.19 in 10.0 mi NNE 8.1 mph - N/A   Clear
2:10 AM 32.0 °F 24.2 °F 28.4 °F 87% 30.19 in 10.0 mi North 9.2 mph - N/A   Clear
3:55 AM 28.4 °F 20.4 °F 26.6 °F 93% 30.19 in 10.0 mi NNW 8.1 mph - N/A   Clear
4:15 AM 30.2 °F 19.3 °F 26.6 °F 86% 30.21 in 10.0 mi NNW 15.0 mph - N/A   Clear
4:35 AM 28.4 °F 17.5 °F 26.6 °F 93% 30.20 in 10.0 mi North 13.8 mph - N/A   Clear
4:55 AM 28.4 °F 17.5 °F 23.0 °F 80% 30.20 in 10.0 mi North 13.8 mph - N/A   Clear
6:15 AM 26.6 °F 16.2 °F 23.0 °F 86% 30.24 in 10.0 mi North 11.5 mph - N/A   Clear
6:50 AM 26.6 °F 16.2 °F 21.2 °F 80% 30.24 in 10.0 mi North 11.5 mph - N/A   Partly Cloudy
7:50 AM 26.6 °F 14.7 °F 21.2 °F 80% 30.26 in 10.0 mi North 15.0 mph - N/A   Partly Cloudy
8:50 AM 30.2 °F 17.4 °F 23.0 °F 75% 30.26 in 10.0 mi North 20.7 mph 25.3 mph N/A   Scattered Clouds
9:50 AM 33.8 °F 22.5 °F 23.0 °F 65% 30.26 in 10.0 mi North 19.6 mph 24.2 mph N/A   Scattered Clouds
10:50 AM 37.4 °F 27.8 °F 23.0 °F 56% 30.27 in 10.0 mi North 17.3 mph 24.2 mph N/A   Scattered Clouds
11:50 AM 39.2 °F 30.2 °F 23.0 °F 52% 30.26 in 10.0 mi North 17.3 mph 20.7 mph N/A   Scattered Clouds
12:50 PM 41.0 °F 33.5 °F 23.0 °F 49% 30.24 in 10.0 mi North 13.8 mph 20.7 mph N/A   Scattered Clouds
1:50 PM 42.8 °F 35.1 °F 23.0 °F 46% 30.21 in 10.0 mi North 16.1 mph 24.2 mph N/A   Scattered Clouds
2:50 PM 42.8 °F 35.1 °F 23.0 °F 46% 30.19 in 10.0 mi North 16.1 mph - N/A   Mostly Cloudy
3:50 PM 42.8 °F 34.5 °F 21.2 °F 42% 30.18 in 10.0 mi North 18.4 mph 26.5 mph N/A   Mostly Cloudy
4:50 PM 39.2 °F 29.8 °F 23.0 °F 52% 30.19 in 10.0 mi North 18.4 mph 24.2 mph N/A   Overcast
5:55 PM 33.8 °F 22.8 °F 23.0 °F 65% 30.20 in 10.0 mi North 18.4 mph 25.3 mph N/A   Overcast
6:50 PM 32.0 °F 20.5 °F 23.0 °F 69% 30.24 in 10.0 mi North 18.4 mph 26.5 mph N/A   Overcast
7:50 PM 30.2 °F 17.4 °F 23.0 °F 75% 30.29 in 10.0 mi North 20.7 mph 28.8 mph N/A   Overcast
8:15 PM 30.2 °F 17.4 °F 23.0 °F 75% 30.30 in 10.0 mi NNE 20.7 mph 26.5 mph N/A   Overcast
8:35 PM 30.2 °F 17.1 °F 21.2 °F 69% 30.31 in 10.0 mi North 21.9 mph 29.9 mph N/A   Mostly Cloudy
8:50 PM 28.4 °F 15.1 °F 21.2 °F 74% 30.33 in 10.0 mi North 20.7 mph 29.9 mph N/A   Mostly Cloudy
8:55 PM 28.4 °F 14.1 °F 21.2 °F 74% 30.33 in 10.0 mi North 24.2 mph 31.1 mph N/A   Mostly Cloudy
9:15 PM 28.4 °F 15.4 °F 21.2 °F 74% 30.34 in 10.0 mi North 19.6 mph 28.8 mph N/A   Overcast
9:35 PM 28.4 °F 15.8 °F 21.2 °F 74% 30.36 in 10.0 mi North 18.4 mph 28.8 mph N/A   Overcast
9:55 PM 28.4 °F 14.1 °F 19.4 °F 69% 30.37 in 10.0 mi North 24.2 mph 28.8 mph N/A   Overcast
10:15 PM 28.4 °F 15.4 °F 19.4 °F 69% 30.38 in 10.0 mi North 19.6 mph 25.3 mph N/A   Mostly Cloudy
10:35 PM 28.4 °F 14.1 °F 19.4 °F 69% 30.40 in 10.0 mi North 24.2 mph - N/A   Mostly Cloudy
10:55 PM 26.6 °F 12.0 °F 17.6 °F 69% 30.41 in 10.0 mi North 23.0 mph 29.9 mph N/A   Overcast
11:15 PM 26.6 °F 11.4 °F 17.6 °F 69% 30.41 in 10.0 mi North 25.3 mph 28.8 mph N/A   Overcast
11:35 PM 26.6 °F 11.7 °F 15.8 °F 64% 30.42 in 10.0 mi North 24.2 mph 29.9 mph N/A   Overcast
11:55 PM 26.6 °F 11.7 °F 12.2 °F 55% 30.41 in 10.0 mi North 24.2 mph 32.2 mph N/A   Overcast